Location: Balaclava NSW 2575, Australia
(34.4510°S, 150.4953°E)
Time: 22:56:38
(UTC+10:00)

XW-2C - Pass Details

Date: 30 July 2021
Orbit: 505 x 524 km, 97.5° (Epoch: 26 September)

Event Time Altitude Azimuth Distance (km) Brightness Sun altitude
Rises 05:12:23 0° 12° (NNE) 2,647 ? -20.9°
Reaches altitude 10° 05:14:28 10° 12° (NNE) 1,768 ? -20.4°
Maximum altitude 05:18:18 87° 288° (WNW) 539 ? -19.7°
Enters shadow 05:20:53 20° 193° (SSW) 1,261 ? -19.1°
